Regional Weather Roundup
Issued by NWS

Home | Current Version | Previous Version | Text Only | Print | Product List | Glossary Off
Versions: 1 2 3 4 5 6 7 8 9 10 11 12 13 14 15 16 17 18 19 20 21 22 23 24 25 26 27 28 29 30 31 32 33 34 35 36 37 38 39 40 41 42 43 44 45 46 47 48 49 50

702
ASUS45 KSLC 242110
RWRUT

UTAH REGIONAL WEATHER ROUNDUP
NATIONAL WEATHER SERVICE SALT LAKE CITY UT
300 PM MDT TUE APR 24 2018

UTZ001>011-023>025-242200-

NORTHERN UTAH

CITY           SKY/WX    TMP DP  RH WIND       PRES   REMARKS
BRIGHAM CITY   SUNNY     62  23  22 E8        30.30S
DUGWAY         MOSUNNY   63  21  20 NW7G13    30.26F
HILL AFB       NOT AVBL
LOGAN          SUNNY     59  33  37 NW5       30.30F
OGDEN          SUNNY     60  26  27 VRB6      30.27F
SALT LAKE CITY MOSUNNY   64  32  30 W12       30.26F
TOOELE VALLEY  SUNNY     59  36  41 N9        30.29F
WENDOVER       SUNNY     62  22  21 E10G16    30.28F
HEBER CITY       N/A     61  19  20 NE6G16    30.26S
WEST JORDAN    SUNNY     60  33  35 NW14      30.28S

$$

UTZ011>015-024>027-242200-

CENTRAL/NORTHEAST UTAH

CITY           SKY/WX    TMP DP  RH WIND       PRES   REMARKS
PROVO AIRPORT  MOSUNNY   63  29  27 NW14      30.26F
MOAB/CANYONLAN SUNNY     72  20  14 W8        30.10F
DELTA          SUNNY     63  19  19 N8        30.23F
PRICE          SUNNY     67   6   9 VRB6G23   30.20S
RICHFIELD      SUNNY     66  23  19 N10G17    30.20F
ROOSEVELT      MOSUNNY   59  21  23 SE12G20   30.32S
VERNAL         MOSUNNY   58  21  24 E14G25    30.30F

$$

UTZ013>016-019>022-027-242200-

SOUTHERN UTAH

CITY           SKY/WX    TMP DP  RH WIND       PRES   REMARKS
BRYCE CANYON   MOSUNNY   65  22  19 NW16G25   30.23F
CEDAR CITY     SUNNY     68  28  22 N15       30.19S
MILFORD        SUNNY     65  27  23 MISG      30.21F
ST GEORGE      CLEAR     83  29  14 N10       30.01F
HANKSVILLE     SUNNY     73  18  12 CALM      30.12F
KANAB          SUNNY     81  18   9 SW13G22   30.10F
BLANDING         N/A     71  22  15 W6        30.18S

$$

REGIONAL REPORTS     COLORADO/ARIZONA

CITY           SKY/WX    TMP DP  RH WIND       PRES   REMARKS
CRAIG, CO      SUNNY     54  23  30 NW15      30.29S
GRAND JUNCTION SUNNY     68  23  18 W10G25    30.15R
RIFLE, CO      MOSUNNY   59  25  27 NW16G31   30.21R
MONTROSE, CO   CLOUDY    62  30  29 NW20      30.16S
CORTEZ, CO     MOSUNNY   75  19  12 SW13G26   30.11F
COLORADO CITY    N/A     79  27  14 NW14G21   30.13S
PAGE, AZ       SUNNY     81  23  11 N10       30.02F
GRAND CANYON   SUNNY     73  15  11 VRB3      30.18F
KINGMAN, AZ    SUNNY     88  22   9 MISG      30.01F
FLAGSTAFF, AZ  SUNNY     70  14  11 VRB5G23   30.20F

$$

REGIONAL REPORTS    NEVADA/IDAHO/WYOMING

CITY           SKY/WX    TMP DP  RH WIND       PRES   REMARKS
LAS VEGAS, NV  MOSUNNY   88  24  10 MISG      29.95F
ELY, NY        SUNNY     64   8  11 N10       30.23F
ELKO, NV       SUNNY     65  21  18 N10       30.22F
POCATELLO, ID  MOSUNNY   60  34  37 NE12      30.32F
BURLEY, ID     SUNNY     60  29  30 NE15G24   30.31F
FORT BRIDGER,    N/A     49  21  33 E7G17     30.40F
EVANSTON, WY   SUNNY     49  23  36 E13G22    30.36S
ROCK SPRINGS,  PTSUNNY   47  19  33 NE14G23   30.39F
KEMMERER, WY   SUNNY     46  19  34 E6        30.39S

$$




USA.gov is the U.S. government's official web portal to all federal, state and local government web resources and services.